Home   Weather   Naha   Past weeks

Flag for Japan Past Weather in Naha, Okinawa, Japan — Yesterday and Last 2 Weeks

Now
84 °F

Passing clouds.


Feels Like: 94 °F
Forecast: 82 / 92 °F
Wind: 7 mph from Southwest

Location: Naha Airport

Current Time: Aug 17, 2017 at 2:38:36 am

Latest Report: Aug 17, 2017 at 2:00 am


Visibility: N/A

Pressure: 29.80 "Hg

Humidity: 79%

Dew Point: 77 °F

Location of NahaLocation

Past Weather in Naha — Graph

°F

Naha Temperature Yesterday

Maximum temperature yesterday: 91 °F (at 1:00 pm)
Minimum temperature yesterday: 84 °F (at 12:00 am)
Average temperature yesterday: 87 °F

High & Low Weather Summary for the Past Weeks

 TemperatureHumidityPressure
High91 °F (Aug 2, 2:00 pm)94% (Aug 10, 10:30 pm)29.83 "Hg (Aug 10, 10:30 pm)
Low81 °F (Aug 12, 9:00 pm)63% (Aug 14, 2:00 pm)29.53 "Hg (Aug 3, 2:30 pm)
Average87 °F79%29.69 "Hg
* Reported Aug 2 1:00 am — Aug 17 1:30 am, Naha. Weather by CustomWeather, © 2017

Note: Actual official high and low records may vary slightly from our data, if they occured in-between our weather recording intervals... More about our weather records

Advertising

Naha Weather History for the Previous 24 Hours

Scroll right to see more
 ConditionsComfort  
Time TempWeatherWind HumidityBarometerVisibility
1:30 am
Thu, Aug 17
84 °FPassing clouds.7 mph79%29.83 "HgN/A
1:00 am84 °FPassing clouds.7 mph79%29.83 "HgN/A
12:30 am84 °FPassing clouds.7 mph79%29.83 "HgN/A
12:00 am86 °FPassing clouds.8 mph75%29.83 "HgN/A
11:30 pm
Wed, Aug 16
86 °FPassing clouds.7 mph75%29.83 "HgN/A
11:00 pm86 °FPassing clouds.7 mph79%29.83 "HgN/A
10:30 pm86 °FPassing clouds.6 mph79%29.83 "HgN/A
10:00 pm86 °FPassing clouds.5 mph79%29.83 "HgN/A
9:30 pm86 °FPassing clouds.6 mph79%29.80 "HgN/A
9:00 pm86 °FPassing clouds.5 mph79%29.80 "HgN/A
8:30 pm86 °FPassing clouds.6 mph79%29.80 "HgN/A
8:00 pm86 °FPassing clouds.6 mph79%29.80 "HgN/A
7:30 pm86 °FPassing clouds.7 mph75%29.77 "HgN/A
7:00 pm88 °FPartly sunny.6 mph70%29.77 "HgN/A
6:30 pm86 °FScattered clouds.7 mph79%29.77 "HgN/A
6:00 pm88 °FScattered clouds.7 mph75%29.77 "HgN/A
5:30 pm88 °FPassing clouds.7 mph75%29.77 "HgN/A
5:00 pm88 °FScattered clouds.9 mph75%29.77 "HgN/A
4:30 pm90 °FPassing clouds.8 mph71%29.74 "HgN/A
4:00 pm90 °FPassing clouds.9 mph71%29.74 "HgN/A
3:30 pm90 °FPassing clouds.9 mph71%29.77 "HgN/A
3:00 pm90 °FPassing clouds.9 mph71%29.77 "HgN/A
2:30 pm90 °FPassing clouds.8 mph71%29.77 "HgN/A
2:00 pm90 °FPassing clouds.8 mph71%29.77 "HgN/A
1:30 pm90 °FPassing clouds.8 mph71%29.77 "HgN/A
1:00 pm91 °FScattered clouds.7 mph71%29.77 "HgN/A
12:30 pm90 °FPassing clouds.7 mph71%29.77 "HgN/A
12:00 pm88 °FScattered clouds.8 mph75%29.80 "HgN/A
11:30 am88 °FPassing clouds.7 mph75%29.80 "HgN/A
11:00 am90 °FPassing clouds.6 mph71%29.80 "HgN/A
10:30 am88 °FPassing clouds.6 mph75%29.80 "HgN/A
10:00 am88 °FPassing clouds.6 mph75%29.80 "HgN/A
9:30 am88 °FPassing clouds.6 mph75%29.80 "HgN/A
9:00 am88 °FPassing clouds.6 mph75%29.80 "HgN/A
8:30 am88 °FPassing clouds.6 mph75%29.80 "HgN/A
8:00 am86 °FScattered clouds.6 mph79%29.80 "HgN/A
7:30 am86 °FPassing clouds.6 mph79%29.80 "HgN/A
7:00 am84 °FPassing clouds.7 mph84%29.80 "HgN/A
6:30 am84 °FSprinkles. Partly sunny.5 mph84%29.80 "HgN/A
6:00 am84 °FPassing clouds.6 mph84%29.80 "HgN/A
5:30 am84 °FScattered showers. Passing clouds.8 mph84%29.80 "HgN/A
5:00 am84 °FScattered showers. Passing clouds.8 mph84%29.77 "HgN/A
4:30 am84 °FScattered showers. Passing clouds.8 mph84%29.77 "HgN/A
4:00 am84 °FPassing clouds.7 mph84%29.77 "HgN/A
3:30 am84 °FScattered showers. Passing clouds.8 mph84%29.77 "HgN/A
3:00 am84 °FScattered showers. Passing clouds.9 mph84%29.77 "HgN/A
2:30 am84 °FPassing clouds.9 mph84%29.77 "HgN/A
2:00 am84 °FPassing clouds.9 mph84%29.77 "HgN/A
Weather by CustomWeather, © 2017

See weather overviewHow to use our weather pages